[[{"header":{"parameterUnit":"m.s-1","parameterCategory":2,"la1":30.2991,"la2":30.254,"lo1":-89.0895,"lo2":-89.0444,"dy":0.0017,"dx":0.0017,"nx":28,"ny":28,"refTime":"2025-03-30T09:00:00:Z","depth":"0","parameterNumber":2,"parameterNumberName":"U-component_of_CURRENTS"},"data":[0,0,0,0,0,0,0,0,0,0,0,0,0,0,0,0,0,0,0,0,0,0,0,0,0,0,0,0,0,0,0,0,0,0,0,0,0,0,0,0,0,0,0,0,0,0,0,0,0,0,0,0,0,0,0,0,0,0,0.3455,0.3456,0,0.347,0.347,0.347,0.344,0.3439,0.3438,0.3438,0.3321,0.3319,0.3316,0,0,0,0,0,0,0,0,0,0,0,0,0,0.3401,0.3402,0.3455,0.3456,0.3456,0.347,0.347,0.347,0.344,0.3439,0.3438,0.3437,0.3322,0.3319,0.3316,0,0,0,0,0,0,0,0,0,0,0,0,0,0.3417,0.3402,0.3455,0.3446,0.3445,0.347,0.347,0.347,0.344,0.3439,0.3438,0.3437,0.3323,0.3319,0.3316,0.3312,0,0,0.3304,0.3303,0,0,0,0,0,0,0,0,0.3416,0.3419,0.3447,0.3447,0.3446,0.3455,0.3409,0.3412,0.344,0.3438,0.3438,0.3437,0.3357,0.3351,0.3352,0.3307,0.3302,0.3304,0.3302,0.33,0.3299,0,0,0,0,0,0,0,0.3415,0.3418,0.3457,0.3447,0.3447,0.3441,0.3442,0.3409,0.3397,0.3438,0.3437,0.3445,0.3355,0.3356,0.3349,0.33,0.3304,0.3301,0.3298,0.3297,0.3312,0.3315,0,0,0,0,0,0,0.3422,0.3417,0.3457,0.3458,0.3433,0.3443,0.3444,0.345,0.3401,0.3394,0.3446,0.3444,0.3363,0.3353,0.3344,0.3373,0.33,0.3297,0.3294,0.3309,0.3313,0.3316,0,0,0,0,0,0,0.3421,0.3426,0.3456,0.3441,0.3445,0.3446,0.3453,0.3451,0.3456,0.3409,0.3399,0.3452,0.3362,0.335,0.3343,0.3366,0.3295,0.3292,0.3306,0.331,0.3314,0.3405,0,0,0,0,0,0,0.3419,0.3425,0.3429,0.3442,0.3446,0.3473,0.3454,0.3452,0.3464,0.3461,0.3411,0.3399,0.336,0.3349,0.3339,0.336,0.3289,0.3303,0.3308,0.3313,0.3399,0.3412,0.3423,0,0,0,0,0,0.3417,0.3412,0.3429,0.3434,0.3452,0.3474,0.3475,0.347,0.3465,0.3469,0.3456,0.3401,0.3374,0.3348,0.3336,0.3356,0.3301,0.3307,0.3312,0.3394,0.3409,0.3423,0,0,0,0,0,0,0.3362,0.341,0.3427,0.343,0.3459,0.347,0.347,0.3479,0.3474,0.3468,0.3425,0.3414,0.3423,0.3385,0.3358,0.3382,0.3332,0.3335,0.3398,0.3412,0.3424,0.3436,0.3285,0,0,0,0,0,0.3364,0.3385,0.3426,0.3427,0.3447,0.3467,0.3475,0.3481,0.3483,0.348,0.3455,0.3437,0.344,0.3421,0.341,0.3408,0.3418,0.342,0.3432,0.3442,0.3448,0.3523,0.3542,0.3335,0.3335,0.3335,0,0,0.3338,0.337,0.3377,0.342,0.344,0.3469,0.3468,0.3485,0.3506,0.3466,0.3474,0.3476,0.3455,0.3468,0.3467,0.3433,0.3508,0.3449,0.3458,0.3459,0.3531,0.3551,0.3569,0.3339,0.3338,0.3338,0,0,0.3304,0.3336,0.335,0.3387,0.3436,0.3461,0.3475,0.3505,0.3516,0.3536,0.3533,0.356,0.3527,0.3542,0.3539,0.3612,0.3579,0.3602,0.3653,0.3726,0.3743,0.3759,0.38,0.3818,0.3596,0.3596,0.3596,0,0.3271,0.3308,0.3352,0.3385,0.3419,0.3464,0.3493,0.3516,0.3539,0.3567,0.3542,0.3593,0.3568,0.3625,0.3654,0.3636,0.3664,0.3593,0.3741,0.3757,0.3771,0.3809,0.3828,0.3601,0.36,0.36,0.3599,0,0.3262,0.3299,0.331,0.3382,0.3419,0.3451,0.351,0.3544,0.357,0.3604,0.367,0.3673,0.3704,0.3712,0.3694,0.3793,0.3776,0.3758,0.3701,0.3797,0.3831,0.385,0.3608,0.3607,0.3605,0.3604,0,0,0.318,0.3286,0.3293,0.3336,0.3431,0.3455,0.3517,0.3597,0.3653,0.3684,0.3763,0.3791,0.3818,0.3822,0.3827,0.3885,0.4006,0.3863,0.3865,0.3898,0.4158,0.4055,0.4065,0.4019,0.4023,0.4026,0.4142,0,0.3169,0.3222,0.3291,0.3351,0.339,0.3479,0.3539,0.3614,0.3683,0.3768,0.3821,0.389,0.3852,0.3889,0.3945,0.4004,0.4059,0.3975,0.4065,0.4067,0.396,0.4084,0.3923,0.4005,0.4159,0.4162,0.4164,0,0.3149,0.3196,0.3244,0.3365,0.3393,0.3435,0.3566,0.3629,0.3771,0.3832,0.3924,0.3976,0.408,0.4035,0.4168,0.412,0.4145,0.4177,0.4182,0.4065,0.3999,0.3935,0.4032,0.3938,0.4192,0.419,0.4188,0,0.3069,0.3171,0.3209,0.3245,0.3376,0.3421,0.3499,0.3637,0.3713,0.3887,0.3965,0.4091,0.4152,0.4234,0.4276,0.4246,0.4417,0.4379,0.4308,0.43,0.4167,0.414,0.4174,0.4479,0.4478,0.4478,0.4478,0,0.3038,0.3071,0.317,0.3189,0.3254,0.3366,0.3462,0.3569,0.3733,0.3836,0.3983,0.4072,0.4209,0.4306,0.4341,0.4378,0.4464,0.4346,0.4339,0.4192,0.4168,0.4079,0.4033,0.4482,0.4481,0.448,0.448,0,0.2945,0.3011,0.3058,0.3176,0.3211,0.3252,0.3417,0.3495,0.3668,0.3812,0.3875,0.408,0.4216,0.4326,0.4466,0.4434,0.4377,0.4483,0.4284,0.425,0.4062,0.4026,0.3903,0.3789,0.444,0.4438,0.4437,0,0.2904,0.2913,0.3009,0.3027,0.3078,0.3163,0.323,0.3425,0.352,0.3791,0.3849,0.4046,0.4151,0.4323,0.4348,0.4421,0.4309,0.4284,0.4188,0.4054,0.4012,0.3856,0.3758,0.4059,0.4055,0.4051,0.4048,0,0.2825,0.2851,0.2886,0.2924,0.2974,0.3042,0.3156,0.3219,0.3458,0.359,0.3754,0.3871,0.4061,0.4073,0.4177,0.4193,0.4071,0.4208,0.4144,0.3783,0.3544,0.3428,0.3966,0.4017,0.402,0.4022,0.4024,0.4025,0.2755,0.275,0.2787,0.2812,0.2862,0.2897,0.2913,0.305,0.3165,0.3331,0.3536,0.3646,0.3812,0.3933,0.3924,0.3831,0.3825,0.3736,0.3728,0.36,0.3405,0.3851,0.3839,0.3841,0.3842,0.3844,0.3845,0,0.2661,0.2662,0.2679,0.2698,0.2692,0.2763,0.2843,0.284,0.2898,0.3093,0.3213,0.3355,0.3405,0.352,0.3535,0.34,0.3243,0.3316,0.309,0.3037,0.3518,0.3416,0.3218,0.3218,0.3218,0.3219,0.3219,0.3219,0.2611,0.2577,0.2578,0.2516,0.2522,0.2477,0.2479,0.2497,0.2593,0.2669,0.2752,0.2892,0.3172,0.3281,0.3192,0.3108,0.2878,0.2723,0.2735,0.3117,0.3155,0.3192,0.3087,0.2824,0.2824,0.2119,0.2114,0.211]},{"header":{"parameterUnit":"m.s-1","parameterCategory":2,"la1":30.2991,"la2":30.254,"lo1":-89.0895,"lo2":-89.0444,"dy":0.0017,"dx":0.0017,"nx":28,"ny":28,"refTime":"2025-03-30T09:00:00:Z","depth":"0","parameterNumber":3,"parameterNumberName":"V-component_of_CURRENTS"},"data":[0,0,0,0,0,0,0,0,0,0,0,0,0,0,0,0,0,0,0,0,0,0,0,0,0,0,0,0,0,0,0,0,0,0,0,0,0,0,0,0,0,0,0,0,0,0,0,0,0,0,0,0,0,0,0,0,0,0,0.0225,0.0225,0,0.0159,0.0158,0.0157,0.011,0.011,0.011,0.011,0.0037,0.0035,0.0034,0,0,0,0,0,0,0,0,0,0,0,0,0,0.0274,0.0273,0.0225,0.0225,0.0224,0.0159,0.0158,0.0157,0.011,0.011,0.011,0.011,0.0038,0.0036,0.0034,0,0,0,0,0,0,0,0,0,0,0,0,0,0.0233,0.0273,0.0225,0.0194,0.019,0.0159,0.0158,0.0156,0.0111,0.011,0.011,0.0109,0.0038,0.0036,0.0033,0.0025,0,0,0.0025,0.0024,0,0,0,0,0,0,0,0,0.0236,0.0231,0.0199,0.0196,0.0192,0.0143,0.0148,0.0112,0.0111,0.014,0.011,0.0109,0.0073,0.0068,0.0054,0.0021,0.0018,0.0025,0.0024,0.0023,0.0022,0,0,0,0,0,0,0,0.0239,0.0234,0.0198,0.0198,0.0194,0.017,0.0164,0.0141,0.0108,0.0137,0.0134,0.0128,0.0071,0.0057,0.0052,0.0017,0.0025,0.0023,0.0021,0.002,-0.0026,-0.0025,0,0,0,0,0,0,0.0252,0.0237,0.02,0.0196,0.0215,0.0169,0.0163,0.0158,0.0108,0.0101,0.0129,0.0127,0.0061,0.0055,0.005,0.0054,0.0023,0.002,0.0019,-0.0026,-0.0026,-0.0025,0,0,0,0,0,0,0.0253,0.0249,0.0202,0.0215,0.0208,0.0169,0.0165,0.0157,0.0146,0.0103,0.0094,0.0126,0.0061,0.0053,0.0031,0.005,0.0019,0.0017,-0.0026,-0.0026,-0.0025,0.0051,0,0,0,0,0,0,0.0255,0.025,0.0253,0.0217,0.0208,0.0194,0.0165,0.0156,0.0144,0.014,0.0098,0.009,0.006,0.0035,0.0028,0.0046,0.0015,-0.0027,-0.0026,-0.0026,0.0048,0.0054,0.0059,0,0,0,0,0,0.0257,0.0266,0.0254,0.025,0.0213,0.0195,0.0188,0.0158,0.0145,0.0146,0.0112,0.0092,0.0034,0.0033,0.0025,0.0042,-0.0027,-0.0026,-0.0026,0.0045,0.0053,0.0059,0,0,0,0,0,0,0.0289,0.0261,0.0247,0.0247,0.0227,0.0187,0.0186,0.0165,0.0139,0.0136,0.0093,0.0083,0.007,0.0044,0.0044,0.0029,0.0001,0.0001,0.0058,0.0064,0.007,0.0093,0.0013,0,0,0,0,0,0.0299,0.0297,0.0267,0.0267,0.0261,0.0225,0.0214,0.0194,0.0166,0.0154,0.0124,0.0092,0.0066,0.0056,0.0027,0.0022,0.0002,0.0027,0.0032,0.0037,0.005,0.0037,0.0043,-0.0023,-0.0023,-0.0023,0,0,0.031,0.0296,0.0294,0.0274,0.0255,0.0257,0.0218,0.0208,0.0209,0.0151,0.0145,0.0108,0.0067,0.0057,0.005,0.004,0.0044,0.0038,0.0043,0.0053,0.0038,0.0045,0.0051,-0.0022,-0.0023,-0.0023,0,0,0.0339,0.0323,0.0334,0.0323,0.0302,0.0283,0.0285,0.0252,0.0238,0.0222,0.0183,0.0158,0.012,0.0097,0.008,0.0098,0.0071,0.0091,0.0143,0.013,0.0136,0.0141,0.0124,0.0127,0.0098,0.0098,0.0099,0,0.0356,0.0366,0.0335,0.0345,0.0346,0.0302,0.032,0.0298,0.0262,0.0261,0.0231,0.0182,0.014,0.0137,0.0138,0.0113,0.0101,0.0124,0.014,0.0144,0.0148,0.0129,0.0131,0.0102,0.0102,0.0101,0.0101,0,0.0394,0.0402,0.041,0.041,0.0407,0.0414,0.0387,0.038,0.0355,0.0335,0.0321,0.0259,0.0234,0.0215,0.0179,0.019,0.0172,0.0147,0.0129,0.0159,0.0137,0.0138,0.0108,0.0106,0.0105,0.0104,0,0,0.0432,0.0437,0.044,0.0461,0.0445,0.0452,0.0455,0.0454,0.0473,0.0423,0.0445,0.0378,0.0347,0.0324,0.0277,0.0262,0.0263,0.0223,0.022,0.0217,0.0239,0.0205,0.0202,0.0247,0.0248,0.0248,0.0213,0,0.0475,0.0516,0.0502,0.0548,0.0573,0.0543,0.0554,0.0546,0.053,0.0539,0.0477,0.0475,0.0389,0.0386,0.0351,0.0295,0.027,0.0275,0.0201,0.0199,0.0173,0.0203,0.022,0.0189,0.0214,0.0214,0.0214,0,0.0524,0.0547,0.0596,0.0631,0.0639,0.0654,0.0682,0.0691,0.0683,0.0672,0.0649,0.0604,0.057,0.0495,0.0403,0.0415,0.0332,0.0277,0.0274,0.0218,0.0166,0.016,0.0189,0.0048,0.0215,0.0215,0.0214,0,0.058,0.0619,0.0665,0.0674,0.0697,0.0715,0.0731,0.0733,0.0768,0.077,0.0804,0.073,0.0719,0.061,0.0472,0.0448,0.0377,0.0326,0.0213,0.0209,0.0197,0.0191,0.0091,0.0261,0.0261,0.0261,0.0261,0,0.0637,0.0676,0.0696,0.0721,0.0789,0.0782,0.0853,0.0854,0.0888,0.0964,0.0883,0.0927,0.0751,0.0682,0.0532,0.0383,0.0416,0.0233,0.0204,0.0222,0.0219,0.0073,-0.0028,0.0259,0.026,0.026,0.026,0,0.0689,0.0697,0.076,0.0796,0.0816,0.0867,0.0943,0.1002,0.1019,0.112,0.1136,0.1088,0.0999,0.0812,0.0645,0.0476,0.0242,0.0263,0.0292,0.0266,0.0011,-0.0085,-0.0228,-0.0295,0.0135,0.0134,0.0134,0,0.0715,0.0751,0.082,0.0867,0.0884,0.0961,0.1021,0.1062,0.1142,0.1233,0.1298,0.1242,0.1227,0.0955,0.0655,0.0389,0.0229,0.0213,0.0154,0.001,-0.0119,-0.0182,-0.0232,0.0166,0.0165,0.0165,0.0165,0,0.0771,0.0791,0.0841,0.094,0.1012,0.1111,0.1205,0.1288,0.1366,0.146,0.1563,0.1564,0.1305,0.1039,0.0653,0.0461,0.0108,0.0194,0.0048,-0.0101,-0.0175,-0.0256,0.0168,0.0161,0.0161,0.0162,0.0162,0.0162,0.0809,0.0857,0.0923,0.1021,0.1112,0.124,0.1336,0.146,0.1607,0.1754,0.1747,0.1785,0.14,0.0877,0.0589,0.0083,0.006,-0.0074,-0.0178,-0.0225,-0.03,0.011,0.0065,0.0064,0.0064,0.0064,0.0064,0,0.0854,0.0911,0.1003,0.1119,0.123,0.1271,0.1446,0.1559,0.1746,0.1883,0.1967,0.1818,0.1336,0.0851,0.0156,-0.021,-0.0331,-0.0406,-0.0484,-0.0517,-0.014,-0.0148,-0.0242,-0.0242,-0.0242,-0.0242,-0.0242,-0.0242,0.0878,0.0964,0.1013,0.1191,0.1281,0.1442,0.1547,0.1721,0.1855,0.2025,0.2067,0.2067,0.1718,0.0465,-0.034,-0.0525,-0.0767,-0.0844,-0.0968,-0.071,-0.0686,-0.0664,-0.0692,-0.09,-0.0901,-0.1268,-0.1272,-0.1276]}],[{"header":{"parameterUnit":"m.s-1","parameterCategory":2,"la1":30.2991,"la2":30.254,"lo1":-89.0895,"lo2":-89.0444,"dy":0.0017,"dx":0.0017,"nx":28,"ny":28,"refTime":"2025-03-30T09:00:00:Z","depth":"2","parameterNumber":2,"parameterNumberName":"U-component_of_CURRENTS"},"data":[0,0,0,0,0,0,0,0,0,0,0,0,0,0,0,0,0,0,0,0,0,0,0,0,0,0,0,0,0,0,0,0,0,0,0,0,0,0,0,0,0,0,0,0,0,0,0,0,0,0,0,0,0,0,0,0,0,0,0.2841,0.2841,0,0.2871,0.2872,0.2872,0.2879,0.2879,0.2879,0.2879,0.2868,0.2868,0.2868,0,0,0,0,0,0,0,0,0,0,0,0,0,0.28,0.28,0.2841,0.2841,0.2842,0.2871,0.2872,0.2872,0.2879,0.2879,0.2879,0.2879,0.2868,0.2868,0.2868,0,0,0,0,0,0,0,0,0,0,0,0,0,0.2821,0.28,0.284,0.2851,0.2852,0.2871,0.2872,0.2872,0.2879,0.2879,0.2879,0.2879,0.2868,0.2868,0.2868,0.2865,0,0,0.2866,0.2866,0,0,0,0,0,0,0,0,0.2819,0.2822,0.2849,0.285,0.2852,0.2873,0.2853,0.2868,0.2879,0.2867,0.2879,0.2879,0.2868,0.2867,0.287,0.2864,0.2864,0.2866,0.2866,0.2866,0.2866,0,0,0,0,0,0,0,0.2818,0.2821,0.285,0.2849,0.2851,0.2858,0.286,0.2856,0.2864,0.2868,0.2869,0.2876,0.2868,0.2871,0.287,0.2864,0.2866,0.2866,0.2866,0.2865,0.2929,0.2931,0,0,0,0,0,0,0.2818,0.2819,0.285,0.2852,0.2838,0.2859,0.2862,0.2865,0.2865,0.2866,0.2876,0.2876,0.2872,0.2871,0.287,0.292,0.2866,0.2865,0.2865,0.2927,0.2929,0.2932,0,0,0,0,0,0,0.2817,0.282,0.2848,0.2838,0.2842,0.286,0.2863,0.2865,0.2884,0.2872,0.2872,0.2894,0.2872,0.287,0.2894,0.2917,0.2865,0.2865,0.2925,0.2928,0.2931,0.2985,0,0,0,0,0,0,0.2816,0.282,0.2827,0.2838,0.2843,0.2872,0.2863,0.2866,0.2888,0.2889,0.2887,0.2885,0.2871,0.2895,0.2894,0.2916,0.2864,0.2922,0.2926,0.293,0.2981,0.2989,0.2997,0,0,0,0,0,0.2814,0.2819,0.2827,0.2832,0.2851,0.2873,0.2877,0.2887,0.2889,0.2902,0.2912,0.2886,0.2918,0.2897,0.2895,0.2916,0.2921,0.2925,0.2929,0.2977,0.2988,0.2997,0,0,0,0,0,0,0.2797,0.2821,0.283,0.284,0.2864,0.2876,0.2891,0.2898,0.2916,0.2922,0.2907,0.2907,0.2936,0.2926,0.2903,0.2949,0.2916,0.292,0.2953,0.2963,0.2971,0.2984,0.2864,0,0,0,0,0,0.28,0.2815,0.2838,0.2848,0.2864,0.2882,0.2895,0.2906,0.2921,0.293,0.2927,0.2936,0.295,0.2957,0.2961,0.2984,0.3,0.3001,0.3009,0.3015,0.3027,0.3077,0.309,0.2946,0.2946,0.2946,0,0,0.2795,0.2811,0.2819,0.2847,0.2867,0.289,0.289,0.2919,0.2941,0.2925,0.2953,0.296,0.2964,0.2993,0.3005,0.2988,0.3069,0.3021,0.3026,0.3035,0.3083,0.3097,0.3109,0.2949,0.2948,0.2948,0,0,0.2792,0.2813,0.2827,0.2853,0.2893,0.2907,0.292,0.2946,0.2965,0.2998,0.2997,0.3025,0.3036,0.3049,0.3056,0.3114,0.3109,0.3116,0.3165,0.3213,0.3225,0.3236,0.3287,0.3302,0.3121,0.3121,0.3121,0,0.2788,0.281,0.2835,0.2861,0.2885,0.2916,0.2942,0.2967,0.2996,0.3019,0.3016,0.3069,0.3064,0.3114,0.3138,0.313,0.3162,0.3123,0.3223,0.3234,0.3244,0.3294,0.331,0.3124,0.3124,0.3123,0.3123,0,0.2797,0.2825,0.284,0.2883,0.2909,0.2942,0.2981,0.3012,0.3039,0.3063,0.3124,0.314,0.3176,0.3179,0.3176,0.3249,0.3251,0.3225,0.3195,0.3262,0.3311,0.3326,0.3128,0.3127,0.3126,0.3126,0,0,0.2762,0.2833,0.2839,0.2866,0.293,0.2946,0.3,0.3053,0.3104,0.3136,0.3201,0.3234,0.3258,0.3272,0.3279,0.3321,0.3417,0.3312,0.3313,0.3358,0.3542,0.3449,0.3456,0.3413,0.3416,0.3418,0.3552,0,0.2767,0.2809,0.285,0.2894,0.2921,0.2978,0.3029,0.3082,0.3142,0.3212,0.3251,0.3311,0.3291,0.3328,0.3371,0.3412,0.3459,0.3384,0.3476,0.3479,0.3382,0.3471,0.3198,0.3286,0.3567,0.3569,0.3571,0,0.2759,0.2792,0.2832,0.2912,0.2932,0.2967,0.3062,0.3114,0.3222,0.328,0.3355,0.3392,0.3475,0.3442,0.3556,0.3516,0.354,0.3559,0.3564,0.3467,0.3413,0.3263,0.3303,0.3597,0.3595,0.3593,0.3591,0,0.2703,0.2778,0.2808,0.2833,0.2926,0.2964,0.302,0.3128,0.3194,0.333,0.3396,0.3498,0.3561,0.3616,0.365,0.3626,0.3764,0.3728,0.3667,0.3661,0.344,0.3409,0.3803,0.3803,0.3802,0.3802,0.3801,0,0.2682,0.2707,0.2787,0.2803,0.2855,0.2936,0.3017,0.3103,0.3242,0.3317,0.3427,0.3501,0.3608,0.3682,0.3705,0.374,0.381,0.3701,0.3695,0.3452,0.3422,0.3689,0.3674,0.3807,0.3806,0.3805,0.3804,0,0.2612,0.2666,0.2702,0.2797,0.2825,0.2861,0.2993,0.306,0.321,0.3319,0.3363,0.3536,0.3642,0.3722,0.3827,0.38,0.384,0.382,0.3532,0.3488,0.37,0.3687,0.3803,0.3801,0.38,0.3798,0.3797,0,0.258,0.259,0.2668,0.2686,0.273,0.28,0.2852,0.3016,0.3089,0.3309,0.3346,0.3511,0.3581,0.3723,0.3723,0.3772,0.382,0.3522,0.3411,0.3721,0.3704,0.3693,0.3683,0.3156,0.315,0.3144,0.314,0,0.2517,0.2545,0.2571,0.2609,0.2653,0.2698,0.2788,0.2839,0.3024,0.3125,0.3254,0.3337,0.3493,0.3427,0.35,0.3477,0.3498,0.3418,0.3833,0.3185,0.3118,0.3098,0.3108,0.3094,0.3098,0.3102,0.3104,0.3106,0.2464,0.2461,0.2494,0.2517,0.2559,0.2577,0.2579,0.2677,0.2758,0.2876,0.3044,0.3087,0.3178,0.3154,0.308,0.3038,0.3278,0.3137,0.315,0.317,0.3058,0.2989,0.2922,0.2926,0.2929,0.2932,0.2934,0,0.2385,0.2388,0.2404,0.2416,0.2404,0.2469,0.2514,0.2492,0.251,0.2647,0.2732,0.258,0.257,0.2654,0.2532,0.2557,0.2505,0.2446,0.2355,0.2405,0.2449,0.2296,0.1961,0.1957,0.1954,0.1951,0,0,0.2344,0.2314,0.2311,0.2249,0.2258,0.2205,0.2196,0.2183,0.2234,0.2221,0.2235,0.2452,0.2581,0.2225,0.2207,0.2057,0.22,0.1976,0.2768,0.2712,0.275,0.2875,0.2701,0,0,0,0,0]},{"header":{"parameterUnit":"m.s-1","parameterCategory":2,"la1":30.2991,"la2":30.254,"lo1":-89.0895,"lo2":-89.0444,"dy":0.0017,"dx":0.0017,"nx":28,"ny":28,"refTime":"2025-03-30T09:00:00:Z","depth":"2","parameterNumber":3,"parameterNumberName":"V-component_of_CURRENTS"},"data":[0,0,0,0,0,0,0,0,0,0,0,0,0,0,0,0,0,0,0,0,0,0,0,0,0,0,0,0,0,0,0,0,0,0,0,0,0,0,0,0,0,0,0,0,0,0,0,0,0,0,0,0,0,0,0,0,0,0,-0.0003,-0.0003,0,-0.0062,-0.0063,-0.0064,-0.0101,-0.0101,-0.0101,-0.0101,-0.0137,-0.0137,-0.0138,0,0,0,0,0,0,0,0,0,0,0,0,0,0.0048,0.0048,-0.0002,-0.0003,-0.0004,-0.0062,-0.0063,-0.0064,-0.0101,-0.0101,-0.0101,-0.0101,-0.0136,-0.0137,-0.0138,0,0,0,0,0,0,0,0,0,0,0,0,0,0.0011,0.0047,-0.0002,-0.0029,-0.0032,-0.0062,-0.0063,-0.0064,-0.0101,-0.0101,-0.0101,-0.0101,-0.0136,-0.0137,-0.0138,-0.0142,0,0,-0.0142,-0.0143,0,0,0,0,0,0,0,0,0.0013,0.0009,-0.0024,-0.0027,-0.003,-0.0074,-0.0058,-0.0089,-0.0101,-0.0075,-0.0101,-0.0101,-0.0113,-0.0116,-0.0128,-0.0143,-0.0145,-0.0142,-0.0143,-0.0143,-0.0144,0,0,0,0,0,0,0,0.0016,0.0011,-0.0027,-0.0025,-0.0029,-0.0049,-0.0054,-0.0065,-0.0092,-0.0077,-0.008,-0.0086,-0.0114,-0.0127,-0.0129,-0.0145,-0.0142,-0.0143,-0.0144,-0.0144,-0.0167,-0.0167,0,0,0,0,0,0,0.0026,0.0014,-0.0025,-0.0028,-0.0008,-0.0049,-0.0055,-0.006,-0.0092,-0.0098,-0.0086,-0.0087,-0.0125,-0.0127,-0.013,-0.012,-0.0143,-0.0145,-0.0145,-0.0167,-0.0167,-0.0167,0,0,0,0,0,0,0.0027,0.0023,-0.0022,-0.0008,-0.0016,-0.005,-0.0055,-0.0061,-0.007,-0.0099,-0.0104,-0.0087,-0.0125,-0.0129,-0.0139,-0.0123,-0.0145,-0.0146,-0.0167,-0.0167,-0.0167,-0.011,0,0,0,0,0,0,0.0029,0.0024,0.0027,-0.0008,-0.0016,-0.003,-0.0055,-0.0062,-0.0073,-0.0076,-0.0102,-0.0106,-0.0125,-0.0137,-0.014,-0.0125,-0.0147,-0.0167,-0.0167,-0.0167,-0.0112,-0.0108,-0.0105,0,0,0,0,0,0.0031,0.0041,0.0028,0.0023,-0.0011,-0.0029,-0.0035,-0.006,-0.0072,-0.007,-0.0094,-0.0105,-0.0137,-0.0137,-0.0141,-0.0126,-0.0167,-0.0167,-0.0167,-0.0114,-0.0109,-0.0105,0,0,0,0,0,0,0.007,0.0037,0.0022,0.0023,0.0002,-0.0035,-0.0033,-0.0054,-0.0072,-0.0072,-0.0103,-0.0108,-0.0113,-0.0129,-0.0129,-0.0134,-0.0154,-0.0154,-0.0113,-0.0108,-0.0104,-0.0084,-0.0148,0,0,0,0,0,0.0079,0.0076,0.0042,0.0044,0.0036,0.0002,-0.0008,-0.0025,-0.0048,-0.0056,-0.0078,-0.0099,-0.0116,-0.0119,-0.0138,-0.0136,-0.0154,-0.013,-0.0126,-0.0122,-0.0109,-0.0129,-0.0126,-0.0166,-0.0166,-0.0166,0,0,0.0095,0.0077,0.0076,0.0052,0.0034,0.0035,-0.0004,-0.0011,-0.0009,-0.0055,-0.0056,-0.0086,-0.0114,-0.0118,-0.012,-0.0126,-0.0123,-0.0122,-0.0119,-0.0107,-0.0128,-0.0124,-0.0121,-0.0165,-0.0165,-0.0165,0,0,0.0132,0.0112,0.0122,0.0108,0.0086,0.0065,0.0067,0.0033,0.002,0.001,-0.0024,-0.0044,-0.0067,-0.0085,-0.0097,-0.0082,-0.0106,-0.0088,-0.0044,-0.0064,-0.006,-0.0057,-0.008,-0.0079,-0.0081,-0.0081,-0.008,0,0.0155,0.016,0.0124,0.0132,0.013,0.0084,0.0101,0.008,0.0048,0.0045,0.002,-0.0021,-0.0049,-0.0051,-0.0052,-0.007,-0.0087,-0.0057,-0.0057,-0.0055,-0.0053,-0.0077,-0.0077,-0.0078,-0.0078,-0.0078,-0.0079,0,0.0196,0.0201,0.0209,0.0202,0.0196,0.0202,0.0171,0.0162,0.0137,0.0115,0.01,0.0051,0.0031,0.0013,-0.0016,-0.0013,-0.0032,-0.0053,-0.0064,-0.0045,-0.0072,-0.0073,-0.0074,-0.0075,-0.0076,-0.0076,0,0,0.0246,0.0239,0.0242,0.0256,0.0234,0.0238,0.0239,0.0231,0.0244,0.0196,0.0209,0.0155,0.0125,0.0108,0.0066,0.0044,0.0032,0.0007,0.0005,-0.0006,-0.0012,-0.0035,-0.0039,0.0012,0.0012,0.0012,-0.0038,0,0.0291,0.0324,0.0305,0.0345,0.0362,0.0326,0.0334,0.032,0.03,0.0299,0.024,0.0232,0.0163,0.0156,0.0122,0.006,0.0032,0.0047,-0.0036,-0.0038,-0.0054,-0.004,-0.0012,-0.0054,-0.0039,-0.0039,-0.004,0,0.0339,0.0355,0.0399,0.0419,0.0424,0.0437,0.0451,0.0455,0.0433,0.042,0.0394,0.0344,0.0304,0.0242,0.0146,0.0159,0.0081,0.0023,0.0019,-0.0019,-0.0063,-0.0072,-0.0057,-0.0042,-0.0042,-0.0042,-0.0041,0,0.0397,0.0425,0.0465,0.0471,0.048,0.0495,0.0502,0.0493,0.052,0.0503,0.0523,0.0449,0.0433,0.0323,0.0186,0.0171,0.0079,0.0042,-0.0055,-0.0058,-0.0057,-0.006,-0.0025,-0.0025,-0.0025,-0.0025,-0.0025,0,0.0452,0.0485,0.0496,0.0517,0.0575,0.0559,0.0618,0.061,0.063,0.0683,0.0596,0.0619,0.0454,0.0373,0.0231,0.009,0.011,-0.0039,-0.0067,-0.0039,-0.0039,-0.0048,-0.005,-0.0027,-0.0026,-0.0026,-0.0025,0,0.0506,0.0509,0.0563,0.0587,0.0603,0.0645,0.0704,0.0749,0.0752,0.0822,0.0824,0.0761,0.0655,0.0476,0.0305,0.0166,0.0018,-0.0042,-0.0001,-0.0023,-0.0118,-0.0117,-0.0146,-0.0147,-0.0148,-0.0149,-0.0149,0,0.0534,0.0567,0.0622,0.0664,0.0679,0.074,0.0787,0.081,0.0872,0.0913,0.0958,0.0879,0.0838,0.0573,0.0314,0.0068,0.0025,-0.0078,-0.0109,-0.0103,-0.0128,-0.0125,-0.0123,-0.0091,-0.0091,-0.0091,-0.0091,0,0.0591,0.061,0.0653,0.0739,0.08,0.0881,0.0952,0.102,0.106,0.1117,0.1171,0.1141,0.0897,0.0656,0.0311,0.0139,-0.004,-0.0089,-0.0081,-0.0065,-0.0056,-0.0079,-0.0077,-0.0092,-0.0092,-0.0092,-0.0092,-0.0092,0.0634,0.0677,0.0734,0.082,0.0898,0.1002,0.108,0.1169,0.1275,0.1363,0.1327,0.1298,0.1013,0.0588,0.028,-0.0042,-0.003,-0.0149,-0.0147,-0.0145,-0.0131,-0.0123,-0.017,-0.017,-0.017,-0.0171,-0.0171,0,0.0681,0.0729,0.0811,0.091,0.1005,0.1041,0.1178,0.1261,0.1392,0.147,0.151,0.1252,0.0977,0.0646,0.0176,-0.0112,-0.0134,-0.0208,-0.0169,-0.0165,-0.0163,-0.0149,-0.0193,-0.0194,-0.0195,-0.0196,0,0,0.0704,0.0781,0.082,0.0976,0.1057,0.1191,0.1275,0.1402,0.1489,0.1563,0.1556,0.1504,0.1097,0.0752,0.0358,0.0085,0.0026,0.0028,0.0079,0.0175,0.0181,-0.0097,-0.0067,0,0,0,0,0]}],[{"header":{"parameterUnit":"m.s-1","parameterCategory":2,"la1":30.2991,"la2":30.254,"lo1":-89.0895,"lo2":-89.0444,"dy":0.0017,"dx":0.0017,"nx":28,"ny":28,"refTime":"2025-03-30T09:00:00:Z","depth":"4","parameterNumber":2,"parameterNumberName":"U-component_of_CURRENTS"},"data":[0,0,0,0,0,0,0,0,0,0,0,0,0,0,0,0,0,0,0,0,0,0,0,0,0,0,0,0,0,0,0,0,0,0,0,0,0,0,0,0,0,0,0,0,0,0,0,0,0,0,0,0,0,0,0,0,0,0,0.177,0.1771,0,0.1837,0.1838,0.1838,0.1901,0.1902,0.1903,0.1904,0.2013,0.2015,0.2017,0,0,0,0,0,0,0,0,0,0,0,0,0,0.1683,0.1685,0.177,0.1771,0.1772,0.1837,0.1838,0.1838,0.1901,0.1902,0.1903,0.1904,0.2012,0.2015,0.2017,0,0,0,0,0,0,0,0,0,0,0,0,0,0.1731,0.1685,0.177,0.1813,0.1817,0.1837,0.1838,0.1839,0.19,0.1902,0.1903,0.1905,0.2012,0.2015,0.2018,0.2007,0,0,0.2027,0.2028,0,0,0,0,0,0,0,0,0.1728,0.1734,0.1805,0.181,0.1815,0.1864,0.1847,0.1898,0.19,0.1867,0.1904,0.1905,0.1967,0.1974,0.198,0.2012,0.2017,0.2027,0.2029,0.203,0.2031,0,0,0,0,0,0,0,0.1725,0.1731,0.1795,0.1806,0.1812,0.1824,0.1832,0.1857,0.1907,0.187,0.1875,0.1885,0.197,0.1977,0.1983,0.2018,0.2027,0.203,0.2031,0.2033,0.2156,0.2157,0,0,0,0,0,0,0.172,0.1728,0.1793,0.1797,0.1777,0.1825,0.1834,0.1845,0.1906,0.1917,0.1884,0.1888,0.1971,0.1979,0.1987,0.2075,0.203,0.2033,0.2035,0.2154,0.2156,0.2158,0,0,0,0,0,0,0.1718,0.1725,0.179,0.1765,0.1775,0.1825,0.1837,0.1846,0.1892,0.1917,0.1929,0.1926,0.1972,0.1983,0.2044,0.2076,0.2034,0.2037,0.2153,0.2155,0.2157,0.2188,0,0,0,0,0,0,0.1715,0.1724,0.1748,0.1765,0.1776,0.1828,0.1836,0.1846,0.1895,0.1902,0.1956,0.1966,0.1974,0.204,0.2047,0.2079,0.2039,0.2151,0.2154,0.2156,0.2185,0.2191,0.2196,0,0,0,0,0,0.1711,0.1734,0.1749,0.1758,0.1802,0.1829,0.1837,0.1875,0.1896,0.1921,0.196,0.1966,0.2062,0.2043,0.2052,0.2085,0.2149,0.2153,0.2156,0.2183,0.219,0.2196,0,0,0,0,0,0,0.1717,0.1743,0.176,0.1793,0.1822,0.1842,0.1874,0.1894,0.1943,0.1964,0.1984,0.1996,0.206,0.207,0.2048,0.213,0.2107,0.2112,0.2125,0.2131,0.2137,0.2141,0.2042,0,0,0,0,0,0.1726,0.1752,0.1775,0.1809,0.1825,0.1855,0.1879,0.1904,0.1939,0.1964,0.2,0.204,0.2072,0.2101,0.213,0.2175,0.2189,0.2203,0.2209,0.2213,0.2223,0.2266,0.2276,0.2168,0.2168,0.2168,0,0,0.174,0.1758,0.1776,0.1812,0.1839,0.1865,0.1875,0.1921,0.1952,0.1967,0.2036,0.2064,0.2088,0.2139,0.2169,0.2158,0.2252,0.2217,0.2221,0.2229,0.227,0.2281,0.229,0.2171,0.217,0.217,0,0,0.1763,0.1796,0.182,0.1843,0.1887,0.1901,0.1922,0.1963,0.1997,0.2052,0.2071,0.2121,0.2175,0.2196,0.2211,0.2265,0.2278,0.2281,0.2316,0.2357,0.2366,0.2374,0.2406,0.2416,0.2285,0.2286,0.2286,0,0.1783,0.181,0.1834,0.1858,0.1884,0.1921,0.1949,0.1981,0.2041,0.2068,0.2086,0.2174,0.2198,0.2249,0.2271,0.2278,0.2303,0.2286,0.2364,0.2372,0.238,0.241,0.2421,0.2287,0.2287,0.2287,0.2287,0,0.1805,0.1843,0.1862,0.1901,0.193,0.1967,0.2002,0.2047,0.2092,0.212,0.2197,0.2233,0.2286,0.2301,0.2306,0.2374,0.2375,0.2363,0.2344,0.2392,0.2421,0.2432,0.229,0.2289,0.2289,0.2288,0,0,0.1802,0.1866,0.1876,0.19,0.1958,0.1977,0.2035,0.2085,0.213,0.2192,0.2253,0.231,0.2341,0.2361,0.2381,0.242,0.2495,0.2425,0.2426,0.245,0.2593,0.2438,0.2435,0.2503,0.2505,0.2506,0.2591,0,0.1817,0.1866,0.1895,0.1948,0.1973,0.2021,0.2069,0.2121,0.2177,0.2245,0.2293,0.2365,0.236,0.2408,0.2442,0.2491,0.2527,0.2474,0.2547,0.255,0.2401,0.2443,0.2513,0.2599,0.2601,0.2603,0.2605,0,0.1814,0.1851,0.1905,0.1969,0.1987,0.203,0.2108,0.2156,0.2245,0.2296,0.2367,0.2414,0.2497,0.2485,0.2582,0.2555,0.2581,0.2605,0.2608,0.246,0.2414,0.2542,0.2625,0.2623,0.2622,0.262,0.2619,0,0.1774,0.1849,0.1894,0.1917,0.1998,0.2042,0.2095,0.218,0.2228,0.2348,0.2401,0.2492,0.2566,0.2612,0.2664,0.2644,0.2759,0.2729,0.2607,0.2597,0.2698,0.2689,0.2789,0.2789,0.2789,0.2789,0.2788,0,0.1746,0.1786,0.1888,0.1909,0.1972,0.2037,0.211,0.2179,0.2282,0.2334,0.2435,0.2491,0.2608,0.2677,0.2699,0.2686,0.2787,0.2621,0.2609,0.2709,0.27,0.2706,0.2695,0.2792,0.2791,0.279,0.279,0,0.1682,0.1752,0.1808,0.1915,0.1953,0.2,0.2114,0.2156,0.2273,0.2349,0.2399,0.2533,0.2622,0.27,0.2797,0.272,0.2733,0.2702,0.282,0.2812,0.2535,0.2526,0.2567,0.2562,0.2558,0.2555,0.2552,0,0.1647,0.1675,0.18,0.1838,0.1894,0.1975,0.2023,0.2145,0.2185,0.2342,0.2364,0.251,0.2576,0.2584,0.2682,0.2713,0.268,0.2664,0.2576,0.2529,0.2514,0.2511,0.2507,0.2545,0.2544,0.2543,0.2542,0,0.1581,0.1646,0.1693,0.1777,0.1841,0.1888,0.197,0.1985,0.211,0.2238,0.228,0.2327,0.242,0.2489,0.2539,0.2549,0.2659,0.262,0.2628,0.2546,0.2503,0.2492,0.2493,0.2528,0.253,0.2532,0.2532,0,0.1538,0.1555,0.1633,0.1686,0.1763,0.1773,0.1826,0.1868,0.1925,0.2089,0.2106,0.225,0.2395,0.2406,0.2447,0.2453,0.241,0.2318,0.2341,0.2357,0.2248,0.2162,0.2076,0,0,0,0,0,0.1483,0.1486,0.1532,0.1575,0.1644,0.1685,0.1773,0.1824,0.1944,0.1923,0.2005,0.2076,0.2138,0.2225,0.2191,0.2361,0.2424,0.231,0.2331,0.245,0.2467,0.2357,0,0,0,0,0,0,0.1443,0.1486,0.1491,0.1468,0.1476,0.1528,0.1576,0.1658,0.165,0.1791,0.1845,0.1956,0.2061,0.2144,0.2156,0.218,0.215,0.241,0.2404,0.2441,0.2456,0.2469,0.2362,0,0,0,0,0]},{"header":{"parameterUnit":"m.s-1","parameterCategory":2,"la1":30.2991,"la2":30.254,"lo1":-89.0895,"lo2":-89.0444,"dy":0.0017,"dx":0.0017,"nx":28,"ny":28,"refTime":"2025-03-30T09:00:00:Z","depth":"4","parameterNumber":3,"parameterNumberName":"V-component_of_CURRENTS"},"data":[0,0,0,0,0,0,0,0,0,0,0,0,0,0,0,0,0,0,0,0,0,0,0,0,0,0,0,0,0,0,0,0,0,0,0,0,0,0,0,0,0,0,0,0,0,0,0,0,0,0,0,0,0,0,0,0,0,0,-0.0028,-0.0028,0,-0.0071,-0.0072,-0.0072,-0.0103,-0.0103,-0.0103,-0.0103,-0.0127,-0.0127,-0.0127,0,0,0,0,0,0,0,0,0,0,0,0,0,0.0007,0.0006,-0.0028,-0.0028,-0.0029,-0.0071,-0.0072,-0.0072,-0.0103,-0.0103,-0.0103,-0.0103,-0.0126,-0.0127,-0.0127,0,0,0,0,0,0,0,0,0,0,0,0,0,-0.002,0.0006,-0.0028,-0.0049,-0.0051,-0.0071,-0.0072,-0.0073,-0.0103,-0.0103,-0.0103,-0.0103,-0.0126,-0.0127,-0.0127,-0.0126,0,0,-0.0129,-0.013,0,0,0,0,0,0,0,0,-0.0018,-0.0021,-0.0045,-0.0047,-0.005,-0.0082,-0.0068,-0.0089,-0.0102,-0.0083,-0.0103,-0.0104,-0.0109,-0.0111,-0.012,-0.0127,-0.0128,-0.013,-0.013,-0.013,-0.013,0,0,0,0,0,0,0,-0.0016,-0.002,-0.0045,-0.0046,-0.0049,-0.0064,-0.0068,-0.0073,-0.0094,-0.0085,-0.0087,-0.0091,-0.011,-0.0119,-0.012,-0.0128,-0.013,-0.013,-0.0131,-0.0131,-0.0144,-0.0144,0,0,0,0,0,0,-0.0009,-0.0018,-0.0044,-0.0047,-0.0034,-0.0064,-0.0068,-0.0071,-0.0094,-0.0098,-0.0091,-0.0093,-0.0118,-0.0119,-0.0121,-0.0113,-0.013,-0.0131,-0.0131,-0.0144,-0.0144,-0.0144,0,0,0,0,0,0,-0.0008,-0.0011,-0.0042,-0.0033,-0.0038,-0.0064,-0.0067,-0.0072,-0.008,-0.0099,-0.0103,-0.0094,-0.0118,-0.012,-0.0127,-0.0114,-0.0131,-0.0132,-0.0144,-0.0144,-0.0144,-0.01,0,0,0,0,0,0,-0.0007,-0.001,-0.0008,-0.0032,-0.0038,-0.0046,-0.0067,-0.0073,-0.0082,-0.0084,-0.0103,-0.0105,-0.0118,-0.0126,-0.0128,-0.0115,-0.0132,-0.0144,-0.0144,-0.0144,-0.0102,-0.0099,-0.0096,0,0,0,0,0,-0.0005,0.0003,-0.0007,-0.001,-0.0035,-0.0046,-0.005,-0.007,-0.0082,-0.008,-0.0098,-0.0105,-0.0127,-0.0126,-0.0128,-0.0116,-0.0144,-0.0144,-0.0144,-0.0103,-0.0099,-0.0096,0,0,0,0,0,0,0.0023,-0.0,-0.0012,-0.001,-0.0025,-0.0051,-0.005,-0.0066,-0.008,-0.0082,-0.0103,-0.0107,-0.011,-0.0121,-0.012,-0.0121,-0.0137,-0.0137,-0.0105,-0.0102,-0.0099,-0.0083,-0.0133,0,0,0,0,0,0.003,0.0028,0.0004,0.0007,0.0001,-0.0025,-0.0032,-0.0046,-0.0063,-0.0069,-0.0084,-0.01,-0.0111,-0.0112,-0.0125,-0.0121,-0.0141,-0.0116,-0.0114,-0.0111,-0.0101,-0.0122,-0.012,-0.0143,-0.0143,-0.0143,0,0,0.0043,0.003,0.0029,0.0012,-0.0001,0.0001,-0.003,-0.0035,-0.0033,-0.0068,-0.0068,-0.0091,-0.011,-0.0111,-0.0112,-0.0116,-0.0117,-0.0111,-0.0108,-0.0099,-0.0122,-0.012,-0.0118,-0.0143,-0.0143,-0.0143,0,0,0.0071,0.0055,0.0064,0.0054,0.0037,0.0023,0.0023,-0.0001,-0.0012,-0.0019,-0.0045,-0.0059,-0.0074,-0.0085,-0.0093,-0.0081,-0.0105,-0.0087,-0.0053,-0.0074,-0.0072,-0.007,-0.0101,-0.0103,-0.0081,-0.0081,-0.0081,0,0.0088,0.0093,0.0066,0.0072,0.0072,0.0037,0.0051,0.0035,0.0012,0.0009,-0.0011,-0.0042,-0.006,-0.0059,-0.0059,-0.0072,-0.0094,-0.0062,-0.0069,-0.0068,-0.0067,-0.0099,-0.0102,-0.0079,-0.0079,-0.0079,-0.0079,0,0.0119,0.0124,0.013,0.0126,0.0124,0.0129,0.0107,0.01,0.008,0.0064,0.0051,0.0015,0.0001,-0.0012,-0.0031,-0.0031,-0.0053,-0.0066,-0.0074,-0.0062,-0.0097,-0.01,-0.0076,-0.0076,-0.0077,-0.0078,0,0,0.0156,0.0153,0.0156,0.0167,0.0153,0.0158,0.0161,0.0157,0.0165,0.0129,0.0135,0.01,0.0074,0.0063,0.0032,0.0011,-0.001,-0.0021,-0.0023,-0.0045,-0.0066,-0.0071,-0.0075,-0.0026,-0.0026,-0.0026,-0.0097,0,0.019,0.0217,0.0205,0.0238,0.0252,0.0228,0.0236,0.0227,0.0211,0.0206,0.016,0.0153,0.0105,0.0098,0.0069,0.0012,-0.0015,0.001,-0.008,-0.0083,-0.0083,-0.0077,-0.0026,-0.0099,-0.01,-0.0101,-0.0101,0,0.0225,0.0239,0.0276,0.0295,0.0299,0.0314,0.0326,0.0331,0.0311,0.0298,0.0275,0.0235,0.02,0.0156,0.0066,0.0082,0.0016,-0.0037,-0.0041,-0.0058,-0.0092,-0.0114,-0.0107,-0.0107,-0.0106,-0.0106,-0.0105,0,0.0265,0.0291,0.0325,0.0331,0.0343,0.0359,0.0367,0.036,0.038,0.0361,0.0368,0.0308,0.0286,0.0196,0.0082,0.0075,-0.0024,-0.0047,-0.0118,-0.012,-0.0114,-0.0115,-0.0109,-0.0109,-0.0109,-0.0109,-0.0108,0,0.0302,0.0332,0.0348,0.0366,0.0415,0.0406,0.0454,0.0449,0.0459,0.0489,0.0423,0.0426,0.0296,0.022,0.0107,-0.0013,-0.0007,-0.0108,-0.0133,-0.0097,-0.0095,-0.0117,-0.0117,-0.0111,-0.0111,-0.011,-0.011,0,0.0337,0.0346,0.0391,0.0418,0.0435,0.0471,0.0521,0.0553,0.0549,0.0586,0.0584,0.0522,0.0421,0.0278,0.013,0.0032,-0.0091,-0.0137,-0.0089,-0.0112,-0.0182,-0.0179,-0.0219,-0.022,-0.022,-0.0221,-0.0221,0,0.0354,0.0381,0.0437,0.0474,0.0491,0.0544,0.0582,0.06,0.0638,0.0644,0.0664,0.0585,0.0519,0.0314,0.0154,-0.0063,-0.0098,-0.0171,-0.0176,-0.017,-0.0191,-0.0187,-0.0184,-0.0222,-0.0222,-0.0222,-0.0222,0,0.039,0.0412,0.0449,0.0525,0.0578,0.0645,0.0699,0.0734,0.0752,0.0752,0.0739,0.0625,0.0511,0.0334,0.0164,0.0006,-0.0128,-0.0177,-0.0177,-0.0183,-0.0175,-0.0194,-0.019,-0.0224,-0.0224,-0.0224,-0.0224,0,0.0418,0.0451,0.0502,0.0571,0.0645,0.0716,0.0744,0.0782,0.0816,0.0809,0.0806,0.0671,0.0596,0.037,0.0215,0.0057,0.0011,-0.0051,-0.0059,-0.0059,0.0003,0.0039,0.0041,0,0,0,0,0,0.044,0.0477,0.0544,0.0616,0.0694,0.0738,0.0809,0.0828,0.0843,0.0845,0.0827,0.0718,0.0496,0.0406,0.025,0.0187,-0.0028,-0.0003,-0.0106,-0.0235,-0.0232,-0.0188,0,0,0,0,0,0,0.0452,0.0512,0.0542,0.0643,0.0701,0.0787,0.0835,0.0849,0.0849,0.0841,0.0735,0.0671,0.0463,0.0589,0.0247,0.0199,0.0108,-0.0107,-0.0111,-0.0236,-0.0234,-0.0232,-0.0185,0,0,0,0,0]}]]